Maastricht, Netherlands

4:09 PM CEST on September 20, 2017 (GMT +0200)
Maastricht-Aachen

Weather History for EHBK - July, 2013

Change the Weather History Date:

Tuesday, July 2, 2013

  Actual Average Record
Temperature  
Mean Temperature 62 °F -  
Max Temperature 75 °F 71 °F 100 °F (2015)
Min Temperature 49 °F 54 °F 46 °F (2011)
Degree Days  
Heating Degree Days 3    
Growing Degree Days 12 (Base 50)    
Moisture  
Dew Point 52 °F    
Average Humidity 68    
Maximum Humidity 100    
Minimum Humidity 36    
Precipitation  
Precipitation 0.00 in 0.09 in - ()
Sea Level Pressure  
Sea Level Pressure 29.95 in    
Wind  
Wind Speed 5 mph ()    
Max Wind Speed 13 mph    
Max Gust Speed -    
Visibility 7.3 miles    
Events      
Averages and records for this station are not official NWS values.
T = Trace of Precipitation, MM = Missing Value Source: Averaged Metar Reports

Daily Weather History Graph

Daily Weather History Graph

Search for Another Location

Airport or City:

Trip Planner

Search our weather history database for the weather conditions in past years. The results will help you decide how hot, cold, wet, or windy it might be!

Date:

Astronomy

Jul. 02, 2013 Rise Set
Actual Time 5:27 AM CEST 9:53 PM CEST
Civil Twilight 4:42 AM CEST 10:39 PM CEST
Nautical Twilight 3:33 AM CEST 11:47 PM CEST
Astronomical Twilight 2:13 AM CEST 1:08 AM CEST
Moon 1:43 AM CEST (7/2) 4:34 PM CEST (7/2)
Length of Visible Light 17h 57m
Length of Day
16h 25m
Waning Crescent, 29% of the Moon is Illuminated
Jul 2
Waning Crescent
Jul 8
New
Jul 16
First Quarter
Jul 22
Full
Jul 29
Last Quarter

Hourly Weather History & Observations

Time (CEST) Temp. Dew Point Humidity Pressure Visibility Wind Dir Wind Speed Gust Speed Precip Events Conditions
12:25 AM 57.2 °F 53.6 °F 88% 30.01 in 6.2 mi WNW 3.5 mph - N/A   Scattered Clouds
12:55 AM 59.0 °F 53.6 °F 82% 30.01 in 6.2 mi Variable 3.5 mph - N/A   Partly Cloudy
1:25 AM 55.4 °F 53.6 °F 94% 30.01 in 6.2 mi Variable 2.3 mph - N/A   Mostly Cloudy
1:55 AM 55.4 °F 51.8 °F 88% 30.01 in 6.2 mi Variable 2.3 mph - N/A   Partly Cloudy
2:00 AM 54 °F 53 °F 93% 30.03 in 9 mi SSW 4.5 mph - -   Partly Cloudy
2:25 AM 53.6 °F 51.8 °F 94% 30.01 in 6.2 mi SSW 4.6 mph - N/A   Unknown
2:55 AM 51.8 °F 50.0 °F 94% 30.01 in 6.2 mi SSW 4.6 mph - N/A   Unknown
3:25 AM 51.8 °F 51.8 °F 100% 30.01 in 5.6 mi SSW 4.6 mph - N/A   Unknown
3:55 AM 51.8 °F 51.8 °F 100% 30.01 in 6.2 mi SSW 4.6 mph - N/A   Unknown
4:25 AM 53.6 °F 51.8 °F 94% 30.01 in 6.2 mi SSW 3.5 mph - N/A   Unknown
4:55 AM 51.8 °F 50.0 °F 94% 30.01 in 6.2 mi SSW 4.6 mph - N/A   Unknown
5:00 AM 51 °F 50 °F 95% 30.02 in 7 mi SSW 4.5 mph - -  
5:25 AM 50.0 °F 50.0 °F 100% 30.01 in 6.2 mi SSW 5.8 mph - N/A   Unknown
5:55 AM 50.0 °F 50.0 °F 100% 30.01 in 6.2 mi SSW 6.9 mph - N/A   Unknown
6:25 AM 51.8 °F 50.0 °F 94% 30.01 in 6.2 mi SSW 5.8 mph - N/A   Unknown
6:55 AM 53.6 °F 50.0 °F 88% 30.01 in 6.2 mi SSW 6.9 mph - N/A   Unknown
7:25 AM 55.4 °F 51.8 °F 88% 30.01 in 6.2 mi SSW 5.8 mph - N/A   Unknown
7:55 AM 57.2 °F 51.8 °F 82% 30.01 in 6.2 mi SW 6.9 mph - N/A   Unknown
8:00 AM 57 °F 51 °F 72% 30.02 in 15 mi WSW 6.7 mph - -   Partly Cloudy
8:25 AM 57.2 °F 50.0 °F 77% 30.01 in 6.2 mi WSW 6.9 mph - N/A   Unknown
8:55 AM 59.0 °F 51.8 °F 77% 30.01 in 6.2 mi WSW 5.8 mph - N/A   Unknown
9:25 AM 59.0 °F 51.8 °F 77% 30.01 in 6.2 mi WSW 5.8 mph - N/A   Unknown
9:55 AM 60.8 °F 51.8 °F 72% 30.01 in 6.2 mi SW 8.1 mph - N/A   Partly Cloudy
10:25 AM 62.6 °F 51.8 °F 68% 30.01 in 6.2 mi SW 8.1 mph - N/A   Scattered Clouds
10:55 AM 64.4 °F 51.8 °F 64% 29.98 in 6.2 mi WSW 8.1 mph - N/A   Partly Cloudy
11:00 AM 65 °F 54 °F 58% 30.00 in 16 mi WSW 8.9 mph - -   Partly Cloudy
11:25 AM 64.4 °F 53.6 °F 68% 29.98 in 6.2 mi WSW 10.4 mph - N/A   Scattered Clouds
11:55 AM 66.2 °F 51.8 °F 60% 29.98 in 6.2 mi WSW 10.4 mph - N/A   Scattered Clouds
12:25 PM 66.2 °F 53.6 °F 64% 29.98 in 6.2 mi WSW 12.7 mph - N/A   Partly Cloudy
12:55 PM 66.2 °F 51.8 °F 60% 29.98 in 6.2 mi WSW 9.2 mph - N/A   Unknown
1:25 PM 68.0 °F 50.0 °F 52% 29.98 in 6.2 mi SW 12.7 mph - N/A   Unknown
1:55 PM 69.8 °F 51.8 °F 53% 29.95 in 6.2 mi SW 11.5 mph - N/A   Unknown
2:00 PM 69 °F 51 °F 41% 29.97 in 17 mi WSW 11.2 mph - -   Partly Cloudy
2:25 PM 69.8 °F 50.0 °F 49% 29.95 in 6.2 mi WSW 12.7 mph - N/A   Unknown
2:55 PM 71.6 °F 48.2 °F 43% 29.95 in 6.2 mi WSW 11.5 mph - N/A   Unknown
3:25 PM 73.4 °F 50.0 °F 44% 29.92 in 6.2 mi WSW 11.5 mph - N/A   Unknown
3:55 PM 73.4 °F 51.8 °F 47% 29.92 in 6.2 mi WSW 11.5 mph - N/A   Unknown
4:25 PM 73.4 °F 51.8 °F 47% 29.92 in 6.2 mi WSW 8.1 mph - N/A   Unknown
4:55 PM 73.4 °F 50.0 °F 44% 29.89 in 6.2 mi WSW 9.2 mph - N/A   Unknown
5:00 PM 74 °F 52 °F 36% 29.91 in 17 mi WSW 6.7 mph - -   Mostly Cloudy
5:25 PM 73.4 °F 50.0 °F 44% 29.89 in 6.2 mi WSW 9.2 mph - N/A   Unknown
5:55 PM 73.4 °F 50.0 °F 44% 29.89 in 6.2 mi WSW 6.9 mph - N/A   Unknown
6:25 PM 73.4 °F 51.8 °F 47% 29.86 in 6.2 mi WSW 4.6 mph - N/A   Unknown
6:55 PM 73.4 °F 50.0 °F 44% 29.86 in 6.2 mi West 3.5 mph - N/A   Unknown
7:25 PM 71.6 °F 51.8 °F 50% 29.86 in 6.2 mi Variable 2.3 mph - N/A   Unknown
7:55 PM 71.6 °F 53.6 °F 53% 29.86 in 6.2 mi Variable 2.3 mph - N/A   Unknown
8:00 PM 71 °F 58 °F 53% 29.86 in 17 mi NNW 2.2 mph - -   Partly Cloudy
8:25 PM 69.8 °F 55.4 °F 60% 29.86 in 6.2 mi Variable 1.2 mph - N/A   Unknown
8:55 PM 69.8 °F 55.4 °F 60% 29.83 in 6.2 mi East 3.5 mph - N/A   Unknown
9:25 PM 68.0 °F 53.6 °F 60% 29.83 in 6.2 mi ESE 5.8 mph - N/A   Unknown
9:55 PM 68.0 °F 53.6 °F 60% 29.83 in 6.2 mi ESE 4.6 mph - N/A   Unknown
10:25 PM 68.0 °F 53.6 °F 60% 29.83 in 6.2 mi East 4.6 mph - N/A   Unknown
10:55 PM 68.0 °F 53.6 °F 60% 29.80 in 6.2 mi ESE 6.9 mph - N/A   Unknown
11:00 PM 67 °F 53 °F 51% 29.81 in 11 mi ESE 6.7 mph - -   Overcast
11:25 PM 68.0 °F 53.6 °F 60% 29.80 in 6.2 mi SE 6.9 mph - N/A   Unknown
11:55 PM 66.2 °F 55.4 °F 68% 29.80 in 6.2 mi SE 6.9 mph - N/A   Unknown